This is the latest recevied weather packets stored in our database for station/object DG9MHV-10. If no packets are shown the sender has not sent any weather packets the latest 10 day(s).
| Time | Temp. | Humidity | Pressure | Rain* | Wind** | Luminosity | Snow |
|---|---|---|---|---|---|---|---|
| 1777677969 | 7.78° C | 100% | 1024.1 hPa | - | - | - | - |
| 1777677069 | 8.33° C | 100% | 1024.2 hPa | - | - | - | - |
| 1777676169 | 8.33° C | 100% | 1024.3 hPa | - | - | - | - |
| 1777675269 | 8.89° C | 100% | 1024.5 hPa | - | - | - | - |
| 1777674386 | 9.44° C | 100% | 1024.5 hPa | - | - | - | - |
| 1777673468 | 10° C | 100% | 1024.6 hPa | - | - | - | - |
| 1777672568 | 10.56° C | 100% | 1024.5 hPa | - | - | - | - |
| 1777671668 | 10.56° C | 100% | 1024.6 hPa | - | - | - | - |
| 1777670768 | 10.56° C | 100% | 1024.7 hPa | - | - | - | - |
| 1777669868 | 10.56° C | 100% | 1024.7 hPa | - | - | - | - |
| 1777668968 | 11.11° C | 100% | 1024.8 hPa | - | - | - | - |
| 1777668068 | 11.11° C | 100% | 1024.7 hPa | - | - | - | - |
| 1777667168 | 11.67° C | 100% | 1024.7 hPa | - | - | - | - |
| 1777666268 | 11.67° C | 100% | 1024.8 hPa | - | - | - | - |
| 1777665368 | 12.22° C | 100% | 1024.7 hPa | - | - | - | - |
| 1777664468 | 12.78° C | 100% | 1024.5 hPa | - | - | - | - |
| 1777663568 | 13.33° C | 100% | 1024.5 hPa | - | - | - | - |
| 1777662668 | 13.33° C | 100% | 1024.5 hPa | - | - | - | - |
| 1777661768 | 13.89° C | 100% | 1024.5 hPa | - | - | - | - |
| 1777660867 | 14.44° C | 100% | 1024.3 hPa | - | - | - | - |
| 1777659967 | 15° C | 100% | 1024.2 hPa | - | - | - | - |
| 1777659067 | 15.56° C | 100% | 1024.1 hPa | - | - | - | - |
| 1777658167 | 16.67° C | 100% | 1024.1 hPa | - | - | - | - |
| 1777657267 | 17.22° C | 100% | 1024 hPa | - | - | - | - |
| 1777656367 | 17.22° C | 100% | 1023.8 hPa | - | - | - | - |
* Rain since midnight (hover to see other rain measurements)
** Current wind speed in m/s (hover to see current wind gust speed)